[Iaude] MPEC B95: 2013 QJ48 [a=2.33,e=0.45,i=5.1,H=21.91]
    mpec at marsden.cfa.harvard.edu 
    mpec at marsden.cfa.harvard.edu
       
    Tue Jan 23 09:23:47 EST 2024
    
    
  
M.P.E.C. 2024-B95                              Issued 2024 January 23, 14:22 UT
     The Minor Planet Electronic Circulars contain information on unusual
         minor planets, routine data on comets and natural satellites,
         and occasional editorial announcements.  They are published
    on behalf of Division F of the International Astronomical Union by the
          Minor Planet Center, Smithsonian Astrophysical Observatory,
                          Cambridge, MA 02138, U.S.A.
			  
             Prepared using the Tamkin Foundation Computer Network
                              MPC at CFA.HARVARD.EDU
            URL https://www.minorplanetcenter.net/    ISSN 1523-6714
                                   2013 QJ48                                    
                           Revision to MPEC 2013-R12                            
Additional Observations:
     K13Q48J  C2020 05 28.42339716 31 57.266-15 05 31.95         22.44GVEB095F51
     K13Q48J  C2020 05 28.43566616 31 56.402-15 05 32.16         22.07GVEB095F51
     K13Q48J  C2020 05 28.44794616 31 55.505-15 05 32.43         22.50GVEB095F51
     K13Q48J  C2020 06 15.32020316 10 43.262-15 40 55.25         22.27GVEB095F52
     K13Q48J  C2020 06 15.33214116 10 42.345-15 40 57.64         22.42GVEB095F52
     K13Q48J  C2020 06 15.35612316 10 40.556-15 41 02.51         22.16GVEB095F52
     K13Q48J  C2020 06 17.35715116 08 22.739-15 48 24.15         22.87GVEB095F51
     K13Q48J  C2020 06 17.38088816 08 20.995-15 48 29.45         22.22GVEB095F51
     K13Q48J  C2020 06 22.34948016 03 04.035-16 10 12.29         22.31GVEB095F51
     K13Q48J  C2020 06 22.36160516 03 03.245-16 10 15.99         22.51GVEB095F51
     K13Q48J  C2020 06 22.37374516 03 02.450-16 10 19.12         23.26GVEB095F51
     K13Q48J  C2020 06 23.34608116 02 05.842-16 15 09.77         22.83wUEB095F51
     K13Q48J  C2020 06 23.35580116 02 05.243-16 15 12.84         22.69wUEB095F51
     K13Q48J  C2020 06 23.36556716 02 04.606-16 15 15.67         22.78wUEB095F51
     K13Q48J  C2020 07 14.30004915 52 15.995-18 46 59.59         22.54GVEB095F51
     K13Q48J  C2020 07 14.32203415 52 16.001-18 47 11.59         23.31GVEB095F51
     K13Q48J  C2020 07 14.33303515 52 15.988-18 47 17.74         22.80GVEB095F51
Observer details:
F51 Pan-STARRS 1, Haleakala.  Observers J. Herman, T. Lowe, P. Minguez, A.
    Schultz, I. Smith, J. Bulger, M. Willman.  Measurers K. Chambers, T. de
    Boer, J. Fairlamb, H. Gao, M. Huber, C.-C. Lin, E. Magnier, Y.
    Ramanjooloo, R. Wainscoat, R. Weryk, S. Chastel, L. Denneau, H.
    Flewelling.  1.8-m Ritchey-Chretien + CCD.
F52 Pan-STARRS 2, Haleakala.  Observers J. Herman, T. Lowe, P. Minguez, A.
    Schultz, I. Smith.  Measurers K. Chambers, T. de Boer, J. Fairlamb, H.
    Gao, M. Huber, C.-C. Lin, E. Magnier, Y. Ramanjooloo, R. Wainscoat, R.
    Weryk.  1.8-m Ritchey-Chretien + CCD.
First and last observations above in comparison with prediction:
Residuals in seconds of arc (or two decimals in degrees), reference and Delta-T
200528 F51 0.19+ 0.04+    200714 F51 0.17+ 0.05+    MPO277244   +0.22 days
Orbital elements:
2013 QJ48                                                Earth MOID = 0.2719 AU
Epoch 2023 Sept. 13.0 TT = JDT 2460200.5                Veres                   
M 301.50479              (2000.0)            P               Q                  
n   0.27735784     Peri.  225.56166     +0.82104689     +0.56420403             
a   2.3286761      Node    99.90440     -0.49549368     +0.77995668             
e   0.4521693      Incl.    5.06233     -0.28349255     +0.27081614             
P   3.55           H   21.91          G   0.15           U   2                  
Residuals in seconds of arc
130829 F51  0.2+  0.2-    130831 Q61  0.5-  0.2-    200528 F51  0.4-  0.1+
130829 F51  0.1-  0.2-    130831 Q61  0.5-  0.0     200615 F52  0.1-  0.5-
130829 F51  0.2-  0.2-    130831 Q61  0.3+  0.2-    200615 F52  0.3-  0.3-
130829 F51  0.0   0.3-    130928 691  0.3-  0.8+    200615 F52  0.1+  0.1-
130830 807  0.1-  0.1+    130928 691  0.0   0.5-    200617 F51  0.1-  0.1-
130830 807  0.0   0.2+    130928 691  0.0   0.1-    200617 F51  0.1-  0.1+
130830 807  0.0   0.2+    130929 691  0.3-  0.1+    200622 F51  0.0   0.0
130830 807  0.1+  0.1+    130929 691  0.6-  0.0     200622 F51  0.0   0.2-
130830 807  0.2+  0.1+    130929 691  0.4+  0.3-    200622 F51  0.0   0.2+
130830 W86  0.2+  0.1+    130930 691  0.4+  0.6-    200623 F51  0.0   0.1+
130830 W86  0.1+  0.2+    130930 691  0.4+  0.2-    200623 F51  0.2+  0.0
130830 W86  0.1+  0.1+    130930 691  0.1-  0.1+    200623 F51  0.0   0.1+
130830 W86  0.1+  0.2+    131026 291  0.4-  0.1+    200714 F51  0.1+  0.2-
130830 W86  0.2+  0.0     131026 291  0.7+  0.3+    200714 F51  0.3+  0.0
130830 568  0.1+  0.1+    131026 291  0.0   0.2+    200714 F51  0.1+  0.1-
130830 568  0.1+  0.1+    200528 F51  0.1-  0.4-
130830 568  0.1+  0.1+    200528 F51  0.0   0.1-
Ephemeris:
2013 QJ48                a,e,i = 2.33, 0.45, 5                   q = 1.2757
Date    TT    R. A. (2000) Decl.     Delta      r    Elong.  Phase     V
2023 12 24    17 11 20.3 -21 24 12   2.5967  1.6530    13.0     7.7    25.6
...
2024 01 08    17 57 55.3 -22 16 47   2.4831  1.5721    17.4    10.8    25.5
...
2024 01 16    18 24 06.1 -22 24 06   2.4230  1.5309    19.4    12.4    25.5
...
2024 01 22    18 44 16.1 -22 18 56   2.3788  1.5010    20.9    13.5    25.5
2024 01 23    18 47 40.2 -22 17 09   2.3716  1.4961    21.1    13.7    25.4
2024 01 24    18 51 05.0 -22 15 05   2.3644  1.4913    21.3    13.9    25.4
...
2024 01 30    19 11 46.4 -21 56 51   2.3220  1.4630    22.6    15.0    25.4
...
2024 02 07    19 39 51.4 -21 16 34   2.2684  1.4273    24.2    16.5    25.3
...
2024 02 22    20 33 27.8 -19 10 48   2.1784  1.3681    26.6    18.9    25.2
A. U. Tomatic                (C) Copyright 2024 MPC           M.P.E.C. 2024-B95
    
    
More information about the Iaude
mailing list